Regional Weather Roundup
Issued by NWS

Home | Current Version | Previous Version | Text Only | Print | Product List | Glossary Off
Versions: 1 2 3 4 5 6 7 8 9 10 11 12 13 14 15 16 17 18 19 20 21 22 23 24 25 26 27 28 29 30 31 32 33 34 35 36 37 38 39 40 41 42 43 44 45 46 47 48 49 50

125
ASUS44 KMEG 061510
RWRTN
TENNESSEE HOURLY STATE WEATHER ROUNDUP
NATIONAL WEATHER SERVICE MEMPHIS TN
900 AM CST SAT FEB 06 2016

TNZ002-004-019-021-049-052-054-088>092-061600-
WEST TENNESSEE

CITY           SKY/WX    TMP DP  RH WIND       PRES   REMARKS
MEMPHIS INTL   PTSUNNY   41  29  62 CALM      30.39S
NWS MEMPHIS      N/A     37 N/A N/A MISG        N/A
JACKSON        SUNNY     36  29  75 S3        30.40S
DYERSBURG      CLOUDY    37  28  70 CALM      30.41R
UNION CITY     SUNNY     34  28  80 S3        30.38R
PARIS          SUNNY     39  25  56 SW5       30.38S
LEXINGTON      SUNNY     36  27  69 CALM      30.38R
$$

TNZ008-025-027-028-033-062-065-066-061600-
NORTH MIDDLE TENNESSEE

CITY           SKY/WX    TMP DP  RH WIND       PRES   REMARKS
NASHVILLE      PTSUNNY   38  22  52 CALM      30.41R
CLARKSVILLE    SUNNY     38  28  67 S5        30.39R WCI  34
SMYRNA         SUNNY     37  25  62 S5        30.43S WCI  33
COOKEVILLE     SUNNY     36  28  75 CALM      30.39R
CROSSVILLE     SUNNY     38  19  46 SE3       30.37S
$$

TNZ061-075-076-078-094-096-097-061600-
SOUTH MIDDLE TENNESSEE

CITY           SKY/WX    TMP DP  RH WIND       PRES   REMARKS
FAYETTEVILLE   SUNNY     41  23  48 CALM      30.38F
TULLAHOMA      SUNNY     39  21  48 CALM      30.40R
WINCHESTER     SUNNY     37  25  60 CALM      30.39F
MCMINNVILLE    SUNNY     37  28  70 CALM      30.40R
COLUMBIA       SUNNY     34  34 100 CALM      30.39R
SHELBYVILLE    SUNNY     36  27  69 SE3       30.41S
$$

TNZ017-018-042-046-047-061600-
NORTHEAST TENNESSEE

CITY           SKY/WX    TMP DP  RH WIND       PRES   REMARKS
TRI CITIES     PTSUNNY   31  21  66 CALM      30.40S
$$

TNZ012-013-036-069-073-074-061600-
CENTRAL EAST TENNESSEE

CITY           SKY/WX    TMP DP  RH WIND       PRES   REMARKS
KNOXVILLE      MOSUNNY   33  24  69 N5        30.41S WCI  29
OAK RIDGE      SUNNY     35  26  69 CALM      30.43S
GATLINBURG       N/A     28  21  74 CALM      30.41S
MORRISTOWN     SUNNY     32  21  64 CALM      30.39S
$$

TNZ083-085-099-061600-
SOUTHEAST TENNESSEE

CITY           SKY/WX    TMP DP  RH WIND       PRES   REMARKS
CHATTANOOGA    MOSUNNY   35  26  69 CALM      30.42R
$$

SKY/WX REPORTED AS FAIR MEANS FEW OR NO CLOUDS BELOW
12 THOUSAND FEET.





USA.gov is the U.S. government's official web portal to all federal, state and local government web resources and services.